Tuscaloosa, AL

11:18 PM CDT on May 28, 2017 (GMT -0500)
Tuscaloosa Municipal

Weather History for KTCL - November, 2013

Change the Weather History Date:

Wednesday, November 6, 2013

  Actual Average Record
Temperature  
Mean Temperature 63 °F 58 °F  
Max Temperature 71 °F 71 °F 83 °F (2015)
Min Temperature 55 °F 45 °F 24 °F (1991)
Degree Days  
Heating Degree Days 2 8  
Month to date heating degree days 38 44  
Since 1 July heating degree days 110 161  
Growing Degree Days 13 (Base 50)    
Moisture  
Dew Point 57 °F    
Average Humidity 69    
Maximum Humidity 87    
Minimum Humidity 51    
Precipitation  
Precipitation 0.31 in 0.14 in 1.70 in (2006)
Month to date precipitation 0.31 0.76  
Year to date precipitation 41.42 43.66  
Sea Level Pressure  
Sea Level Pressure 30.14 in    
Wind  
Wind Speed 4 mph (SSW)    
Max Wind Speed 13 mph    
Max Gust Speed 17 mph    
Visibility 8 miles    
Events Rain    
T = Trace of Precipitation, MM = Missing Value Source: NWS Daily Summary

Daily Weather History Graph

Daily Weather History Graph

Search for Another Location

Airport or City:

Trip Planner

Search our weather history database for the weather conditions in past years. The results will help you decide how hot, cold, wet, or windy it might be!

Date:

Astronomy

Nov. 06, 2013 Rise Set
Actual Time 6:13 AM CST 4:54 PM CST
Civil Twilight 5:47 AM CST 5:20 PM CST
Nautical Twilight 5:18 AM CST 5:49 PM CST
Astronomical Twilight 4:48 AM CST 6:18 PM CST
Moon 9:23 AM CST (11/6) 8:02 PM CST (11/6)
Length of Visible Light 11h 32m
Length of Day
10h 40m
Waxing Crescent, 14% of the Moon is Illuminated
Nov 6
Waxing Crescent
Nov 9
First Quarter
Nov 17
Full
Nov 25
Last Quarter
Dec 2
New

Hourly Weather History & Observations

Time (CST) Temp. Dew Point Humidity Pressure Visibility Wind Dir Wind Speed Gust Speed Precip Events Conditions
12:53 AM 59.0 °F 43.0 °F 55% 30.23 in 10.0 mi ESE 4.6 mph - N/A   Clear
1:53 AM 57.9 °F 43.0 °F 58% 30.21 in 10.0 mi ESE 3.5 mph - N/A   Clear
2:53 AM 55.9 °F 43.0 °F 62% 30.19 in 10.0 mi Calm Calm - N/A   Clear
3:53 AM 55.9 °F 44.1 °F 64% 30.19 in 10.0 mi East 3.5 mph - N/A   Clear
4:53 AM 55.9 °F 46.0 °F 69% 30.18 in 10.0 mi Calm Calm - N/A   Clear
5:53 AM 55.9 °F 46.9 °F 72% 30.19 in 10.0 mi Calm Calm - N/A   Clear
6:53 AM 57.0 °F 48.9 °F 74% 30.20 in 10.0 mi Calm Calm - N/A   Partly Cloudy
7:53 AM 62.1 °F 52.0 °F 70% 30.20 in 10.0 mi Variable 5.8 mph - N/A   Partly Cloudy
8:53 AM 64.9 °F 55.0 °F 70% 30.21 in 10.0 mi SE 8.1 mph 16.1 mph N/A   Mostly Cloudy
9:02 AM 64.4 °F 55.4 °F 73% 30.22 in 10.0 mi SSE 5.8 mph - N/A   Overcast
9:53 AM 66.9 °F 55.9 °F 68% 30.21 in 10.0 mi SSE 8.1 mph - N/A   Overcast
10:53 AM 68.0 °F 57.0 °F 68% 30.20 in 10.0 mi South 6.9 mph - N/A   Overcast
11:53 AM 68.0 °F 57.9 °F 70% 30.17 in 10.0 mi South 9.2 mph - N/A   Overcast
12:53 PM 69.1 °F 59.0 °F 70% 30.14 in 10.0 mi South 8.1 mph - N/A   Overcast
1:53 PM 70.0 °F 60.1 °F 71% 30.12 in 10.0 mi South 8.1 mph - N/A   Overcast
2:53 PM 71.1 °F 60.1 °F 68% 30.10 in 10.0 mi South 4.6 mph - N/A   Overcast
3:53 PM 71.1 °F 61.0 °F 70% 30.10 in 10.0 mi Calm Calm - N/A   Overcast
4:53 PM 70.0 °F 61.0 °F 73% 30.10 in 10.0 mi Calm Calm - N/A   Overcast
5:53 PM 68.0 °F 62.1 °F 81% 30.11 in 10.0 mi SW 3.5 mph - N/A   Overcast
6:53 PM 69.1 °F 62.1 °F 78% 30.09 in 10.0 mi SSE 4.6 mph - 0.00 in   Overcast
7:53 PM 66.9 °F 62.1 °F 84% 30.08 in 10.0 mi Calm Calm - N/A   Overcast
8:53 PM 64.9 °F 61.0 °F 87% 30.08 in 10.0 mi Calm Calm - N/A   Mostly Cloudy
9:53 PM 66.0 °F 62.1 °F 87% 30.08 in 10.0 mi South 5.8 mph - N/A   Overcast
10:40 PM 64.4 °F 62.6 °F 94% 30.10 in 2.5 mi WNW 10.4 mph - 0.02 in Rain Rain
10:43 PM 64.4 °F 62.6 °F 94% 30.11 in 1.8 mi West 9.2 mph - 0.07 in Rain Heavy Rain
10:53 PM 64.9 °F 64.0 °F 97% 30.10 in 1.2 mi WNW 8.1 mph - 0.17 in Rain Heavy Rain
11:02 PM 64.4 °F 64.4 °F 100% 30.11 in 2.5 mi WNW 6.9 mph - 0.02 in Rain Rain
11:04 PM 64.4 °F 62.6 °F 94% 30.11 in 3.0 mi Variable 6.9 mph - 0.02 in Rain Rain
11:13 PM 64.4 °F 62.6 °F 94% 30.11 in 4.0 mi WNW 6.9 mph - 0.02 in Rain Light Rain
11:31 PM 64.4 °F 62.6 °F 94% 30.11 in 2.5 mi NNW 8.1 mph - 0.06 in Rain Rain
11:35 PM 64.4 °F 62.6 °F 94% 30.11 in 3.0 mi NNW 8.1 mph - 0.06 in Rain Rain
11:53 PM 64.0 °F 62.1 °F 93% 30.10 in 2.0 mi Calm Calm - 0.14 in Rain Heavy Rain